This is the latest recevied weather packets stored in our database for station/object WB4ZUT. If no packets are shown the sender has not sent any weather packets the latest 10 day(s).
| Time | Temp. | Humidity | Pressure | Rain* | Wind** | Luminosity | Snow |
|---|---|---|---|---|---|---|---|
| 1777911369 | 23.33° C | 58% | 1009.6 hPa | 0 mm | - | 882 W/m² | - |
| 1777911068 | 23.33° C | 58% | 1009.4 hPa | 0 mm | - | 834 W/m² | - |
| 1777910765 | 22.78° C | 58% | 1009.7 hPa | 0 mm | - | 817 W/m² | - |
| 1777910461 | 22.78° C | 60% | 1009.6 hPa | 0 mm | - | 835 W/m² | - |
| 1777910157 | 22.78° C | 60% | 1009.6 hPa | 0 mm | - | 836 W/m² | - |
| 1777909855 | 22.78° C | 60% | 1009.3 hPa | 0 mm | - | 830 W/m² | - |
| 1777909552 | 22.22° C | 62% | 1009.5 hPa | 0 mm | - | 789 W/m² | - |
| 1777909249 | 22.22° C | 60% | 1009.7 hPa | 0 mm | - | 783 W/m² | - |
| 1777908947 | 21.67° C | 60% | 1009.6 hPa | 0 mm | - | 770 W/m² | - |
| 1777908645 | 21.67° C | 60% | 1009.6 hPa | 0 mm | - | 769 W/m² | - |
| 1777908341 | 21.11° C | 62% | 1009.6 hPa | 0 mm | - | 754 W/m² | - |
| 1777908038 | 21.67° C | 60% | 1009.9 hPa | 0 mm | - | 731 W/m² | - |
| 1777907734 | 21.67° C | 60% | 1009.9 hPa | 0 mm | - | 720 W/m² | - |
| 1777907434 | 21.67° C | 61% | 1010 hPa | 0 mm | - | 719 W/m² | - |
| 1777907131 | 21.11° C | 61% | 1009.8 hPa | 0 mm | - | 695 W/m² | - |
| 1777906829 | 21.11° C | 61% | 1010 hPa | 0 mm | - | 672 W/m² | - |
| 1777906526 | 21.11° C | 62% | 1010 hPa | 0 mm | - | 632 W/m² | - |
| 1777906221 | 20.56° C | 61% | 1010.2 hPa | 0 mm | - | 621 W/m² | - |
| 1777905918 | 21.11° C | 62% | 1010.2 hPa | 0 mm | - | 626 W/m² | - |
| 1777905615 | 20.56° C | 62% | 1010.5 hPa | 0 mm | - | 583 W/m² | - |
| 1777905312 | 20° C | 61% | 1010.2 hPa | 0 mm | - | 547 W/m² | - |
| 1777905010 | 20° C | 62% | 1010.4 hPa | 0 mm | - | 536 W/m² | - |
| 1777904706 | 20° C | 62% | 1010.3 hPa | 0 mm | - | 534 W/m² | - |
| 1777904403 | 20° C | 60% | 1010.4 hPa | 0 mm | - | 521 W/m² | - |
| 1777904100 | 20° C | 61% | 1010.2 hPa | 0 mm | - | 446 W/m² | - |
* Rain latest hour (hover to see other rain measurements)
** Current wind speed in m/s (hover to see current wind gust speed)